RH
65 64 62 61 60 60 61 58 53 52 53 52 48 47 46 46 50 51 46 44 41 37 40 43 42 42 47 52 53 54 53 45 41 43 37 30 30 29 30 33 34 31 28 26 27 29 29 29 28 27 25 23 23 25 27 29 32 35 37 38 37 37 36 34 31 29 28 29 27 25 22 21 21 22
64 64 63 62 61 60 58 54 50 49 51 50 47 45 45 45 47 49 47 45 42 38 39 42 43 44 48 52 54 55 52 46 42 39 33 29 31 30 31 35 34 31 29 28 29 30 32 31 31 29 24 21 21 23 25 29 33 36 38 37 36 35 35 32 29 28 28 28 26 24 23 22 22 22
63 64 63 63 62 60 56 51 47 47 48 48 46 45 46 45 45 48 49 46 40 38 41 43 44 47 50 53 57 56 52 48 43 34 29 31 31 30 33 37 37 33 31 31 32 32 34 33 30 25 19 17 19 22 25 29 34 37 37 36 35 34 33 30 28 28 28 27 25 24 23 22 22 22
63 64 65 65 63 60 56 49 45 47 48 48 47 46 46 45 44 47 49 46 40 40 44 47 46 48 51 57 59 55 53 50 41 31 30 35 33 32 37 41 40 38 36 36 35 35 34 31 26 21 17 17 18 21 25 30 34 36 36 35 35 34 32 30 28 28 27 26 24 23 23 22 22 22
62 64 65 65 64 61 54 47 44 46 47 47 46 45 46 46 46 48 49 46 42 44 49 50 48 50 54 59 58 54 53 49 38 31 35 39 38 39 43 45 43 41 39 39 38 35 31 26 23 20 19 17 19 21 26 31 34 35 35 35 34 33 31 29 29 28 27 26 24 23 23 22 22 23
59 61 62 61 61 60 55 50 46 46 46 46 47 49 50 51 52 51 49 46 43 47 55 53 50 53 54 53 55 55 52 43 34 33 37 40 42 43 44 44 43 41 40 41 39 33 26 24 23 21 19 18 19 22 26 31 34 35 35 33 32 31 30 29 29 29 27 25 23 23 23 23 23 24
55 57 61 61 60 60 59 55 51 48 48 49 50 51 52 54 53 50 47 45 42 50 60 57 52 54 52 49 53 56 47 36 30 33 37 39 41 43 44 44 44 45 45 45 39 29 24 24 24 22 21 20 20 23 28 34 36 36 34 31 30 29 30 30 30 29 27 24 22 22 23 24 24 24
54 58 60 60 60 60 59 55 51 50 51 51 51 50 50 51 49 47 45 44 45 53 62 59 53 55 56 54 52 49 41 34 32 36 40 40 41 44 45 45 45 46 47 45 37 27 24 26 25 24 23 22 22 26 32 36 37 36 33 31 29 30 30 31 30 28 25 23 22 22 23 24 24 25
55 58 58 56 56 56 54 51 48 48 50 49 47 47 47 46 45 44 43 45 50 56 59 57 54 56 59 56 50 43 37 33 36 40 42 43 45 46 47 46 46 47 49 46 36 28 27 28 28 26 24 25 28 31 34 37 38 37 33 31 30 30 30 31 30 27 24 22 21 22 23 24 25 26
56 57 55 53 54 52 49 47 45 46 45 42 40 43 43 41 41 42 44 48 51 51 52 56 58 57 58 54 46 39 34 32 35 39 41 43 46 48 49 49 48 48 50 46 37 29 28 29 30 28 27 28 31 33 35 38 38 36 33 31 30 30 30 31 31 27 23 21 20 22 23 25 26 28
57 56 54 53 52 50 47 45 42 42 41 36 34 37 37 38 40 43 45 47 48 49 53 58 59 57 56 51 43 38 33 32 36 37 39 41 43 44 46 47 47 48 48 42 33 27 27 29 31 31 29 30 32 34 37 38 38 35 32 31 30 28 29 32 31 27 23 20 21 23 24 26 28 29
56 56 55 53 52 50 47 43 41 40 38 34 33 33 34 38 42 43 43 44 49 56 59 59 58 57 55 48 41 37 34 34 38 42 43 43 43 43 44 44 46 50 48 38 28 25 26 30 32 31 30 31 32 35 37 38 38 35 33 33 30 28 30 33 32 27 23 21 22 23 25 27 29 31
54 56 56 53 52 49 46 44 42 41 38 34 34 34 34 37 41 42 43 48 56 61 60 57 57 56 53 47 40 37 36 36 41 46 47 46 46 46 46 45 47 51 47 36 27 25 27 30 32 31 30 30 31 33 35 37 37 35 35 35 32 30 32 35 33 27 23 22 22 24 26 28 31 33
53 56 57 55 52 49 46 44 42 40 38 37 37 37 37 39 42 44 50 57 60 60 58 55 54 53 51 46 41 37 37 39 43 47 48 48 48 48 47 46 47 51 46 36 28 27 28 31 32 32 31 31 31 34 36 37 38 37 37 36 34 32 34 35 33 27 24 22 23 24 27 30 32 35
53 55 57 56 53 50 46 43 40 39 39 39 40 41 42 43 45 49 58 63 61 58 55 52 52 52 48 45 41 38 38 43 46 47 48 50 49 47 47 47 47 48 43 34 29 29 30 31 32 32 33 33 34 35 37 38 40 39 37 36 34 34 35 36 33 28 24 23 24 26 29 32 35 37
52 54 56 56 55 52 47 42 38 38 40 42 44 45 46 47 48 52 59 62 58 56 54 51 52 52 47 43 42 39 40 44 48 48 49 51 50 49 49 49 49 48 42 33 30 31 32 33 32 32 33 35 36 37 38 39 40 39 36 35 36 37 37 37 34 30 25 24 26 28 31 36 38 39
50 51 54 55 55 53 48 41 37 38 42 45 46 47 48 48 50 54 56 55 55 56 54 52 52 51 46 43 43 43 43 44 47 49 50 51 51 51 52 52 50 47 39 31 30 34 35 34 32 31 32 34 36 38 39 39 40 40 37 36 38 40 40 39 36 31 26 26 29 31 34 38 39 41
49 50 53 54 53 53 49 43 38 39 42 45 47 49 50 51 53 55 53 51 54 56 54 52 53 52 47 43 45 47 44 40 42 47 51 53 52 50 48 47 47 44 37 32 32 36 36 34 32 31 33 35 37 39 40 41 42 43 41 39 40 42 41 40 37 31 28 29 30 32 36 39 40 44
49 49 52 54 52 51 50 45 41 40 41 44 47 49 50 53 56 55 52 52 56 55 52 51 53 53 49 45 48 50 43 36 38 42 46 48 45 42 42 44 47 45 38 33 33 36 36 34 33 33 34 36 38 40 42 44 44 45 43 41 42 42 42 41 37 30 28 30 31 33 37 39 41 46
51 50 51 52 51 50 50 48 43 42 42 43 46 50 52 55 57 56 53 55 56 52 48 48 50 51 49 46 46 45 39 36 37 40 44 46 43 43 46 49 50 45 36 32 33 35 35 34 33 34 34 37 40 42 44 46 46 45 44 42 43 43 42 41 37 30 28 30 32 35 38 39 42 46
51 51 51 51 50 50 50 51 49 48 46 46 47 50 54 57 59 57 54 55 54 49 46 46 45 44 45 45 43 40 37 37 39 41 46 50 50 49 50 50 48 40 33 31 31 31 32 33 33 34 36 38 40 41 43 45 46 46 44 43 43 42 42 41 36 30 28 31 34 36 39 40 42 45
48 50 50 50 49 49 48 51 53 53 52 51 50 52 57 61 60 56 54 54 50 46 45 45 43 41 42 44 42 39 37 37 39 41 44 47 48 48 48 48 46 38 33 33 33 31 31 32 33 34 37 39 40 41 42 44 45 45 45 44 43 42 42 41 35 29 29 34 35 37 39 41 42 45
46 47 47 47 47 48 49 51 54 55 56 57 57 59 65 66 62 57 56 52 46 44 44 44 42 42 44 45 43 40 38 37 39 42 42 41 42 44 46 46 43 36 34 35 35 32 31 32 33 34 35 38 41 43 44 46 47 46 45 44 43 43 43 40 34 31 33 35 35 37 39 42 44 46
47 46 46 45 45 48 52 55 57 60 62 62 64 68 71 68 63 60 57 51 45 44 46 45 44 45 46 46 43 40 37 37 40 44 44 41 40 40 41 43 42 36 33 36 37 34 33 33 33 34 35 37 40 43 46 48 49 47 45 44 43 43 43 39 34 34 37 36 34 38 42 44 46 46
47 47 47 46 45 47 51 55 59 64 66 66 67 71 71 67 63 61 58 52 47 47 48 47 45 46 47 48 45 39 36 37 40 43 44 42 40 38 37 39 40 36 33 34 36 36 35 34 32 35 38 39 40 43 45 49 50 48 45 42 42 42 41 37 34 37 40 36 33 39 47 48 46 46
47 48 49 49 50 50 50 54 60 64 67 68 68 69 66 62 59 56 55 54 52 50 51 52 50 51 55 58 55 48 44 45 49 51 47 41 38 37 36 36 36 36 34 33 34 36 36 34 33 36 38 40 41 43 45 48 50 49 45 41 40 40 39 34 32 36 39 36 33 40 49 50 47 45
49 49 49 51 56 56 52 55 61 65 68 69 65 60 56 52 50 50 51 55 57 55 55 59 60 60 62 62 59 54 51 53 58 60 56 47 41 39 39 37 33 32 31 31 33 35 36 34 32 33 37 40 41 43 45 47 49 49 47 42 39 39 37 33 30 32 37 37 35 40 49 51 47 45
51 50 50 55 62 59 55 59 65 66 67 65 58 53 50 47 46 47 49 55 60 60 59 62 64 64 64 62 58 52 50 52 56 58 55 51 48 47 47 47 43 37 32 30 30 33 36 35 31 32 37 41 42 43 45 47 49 49 47 43 40 38 36 33 30 30 34 36 37 42 49 50 47 45
53 53 54 61 64 58 54 59 64 64 62 59 54 51 49 47 46 47 50 54 60 64 64 65 66 64 64 63 58 51 49 52 54 53 49 48 48 48 48 50 48 42 34 29 29 34 39 37 31 32 38 41 42 43 44 46 49 49 47 45 40 37 36 34 29 28 30 34 39 45 49 51 49 45
57 56 57 62 62 57 55 57 60 60 57 54 53 51 49 47 47 49 51 54 59 65 67 68 68 66 66 65 59 53 51 52 52 51 48 46 44 44 45 47 47 43 38 36 36 40 42 39 34 33 36 40 43 45 45 46 48 48 50 51 43 36 35 34 29 27 28 33 39 44 47 49 50 46
61 56 57 61 60 56 57 58 58 58 56 54 52 50 48 49 50 51 52 55 58 64 68 69 69 70 69 65 59 55 54 55 55 55 50 43 40 41 43 45 46 45 43 41 41 42 43 41 36 32 34 39 44 46 46 47 47 46 52 55 46 36 35 33 28 27 28 33 39 42 43 49 52 48
64 57 58 61 59 58 59 58 58 59 57 53 51 50 50 52 51 51 53 54 57 63 68 70 72 72 70 64 58 55 56 58 61 59 50 41 38 40 41 42 42 41 39 39 40 42 44 43 37 31 34 40 44 45 47 48 47 47 54 57 48 38 35 32 28 28 28 32 39 40 39 48 53 49
66 61 61 62 62 61 61 61 61 61 57 53 52 53 54 55 55 54 55 56 58 62 66 70 73 74 70 64 60 57 56 59 62 58 48 42 42 44 44 41 39 37 37 39 41 42 43 43 38 32 35 40 43 45 48 50 48 49 53 54 48 41 36 32 29 29 27 30 39 39 36 44 53 50
69 66 65 65 65 65 65 65 62 58 55 55 57 58 57 57 57 57 59 59 60 61 64 68 72 72 68 66 64 61 60 61 60 54 47 45 46 47 47 44 41 38 38 40 42 41 43 46 43 38 39 43 44 47 49 48 48 49 49 48 47 44 39 32 30 30 27 28 36 38 35 39 47 49
72 71 71 71 71 69 67 63 58 55 56 59 62 63 61 58 55 56 60 63 63 63 65 68 70 70 69 67 64 61 61 60 58 52 49 49 50 50 48 45 42 40 40 40 41 42 43 45 44 41 41 44 47 50 48 46 47 50 48 46 47 46 40 34 31 30 28 28 33 39 37 35 37 42
74 75 77 77 74 69 64 58 54 55 58 62 64 65 64 58 52 53 59 65 67 68 69 70 69 69 69 67 63 61 60 60 58 55 53 53 54 54 51 47 41 39 39 39 41 43 43 42 39 37 38 43 47 49 47 46 48 49 47 45 46 46 42 36 32 30 29 28 32 38 40 36 33 35
75 77 80 78 73 68 63 58 57 59 62 64 66 66 64 58 53 53 61 67 69 70 71 71 69 67 64 62 61 62 62 62 61 59 57 56 56 55 55 52 46 42 40 39 40 43 43 38 32 30 35 43 48 49 48 48 48 46 43 42 45 46 44 37 33 30 29 28 31 37 41 39 34 34
78 81 83 80 75 69 64 61 62 63 65 66 68 68 65 60 57 59 65 70 71 71 71 69 67 66 64 61 61 63 64 64 63 62 62 61 60 58 56 53 49 45 43 41 42 44 42 37 32 32 38 45 48 48 48 47 44 42 40 41 44 47 45 39 33 31 30 29 31 36 40 40 37 34
80 83 85 83 77 70 65 63 64 65 66 68 69 68 66 64 61 63 68 72 72 71 68 63 62 64 65 65 64 64 65 66 66 66 65 64 64 63 61 57 52 46 42 42 43 42 37 34 33 34 38 44 47 47 44 42 40 39 39 40 44 46 45 41 36 32 31 30 32 35 39 40 38 35
84 85 85 82 75 67 65 65 65 65 67 70 70 69 69 68 66 66 70 70 69 68 65 61 59 62 65 67 67 66 67 67 67 68 68 67 66 67 66 62 57 51 46 44 41 36 31 27 25 26 31 36 41 42 41 40 39 38 38 40 43 45 45 43 37 32 30 30 32 35 38 40 38 34
86 83 79 74 69 67 67 67 66 66 69 71 71 71 72 71 70 70 71 70 68 66 64 62 61 62 63 66 67 67 68 69 69 69 70 69 68 70 70 68 64 59 53 45 38 33 29 25 22 23 27 30 33 37 39 41 40 38 37 39 41 42 44 43 37 31 29 30 31 34 38 40 39 34
81 78 74 70 69 70 70 69 68 69 71 73 73 74 74 75 74 73 73 72 68 65 65 64 63 63 65 67 68 68 69 69 69 69 69 69 69 71 72 72 70 66 58 46 35 30 26 22 21 24 26 28 31 36 38 39 39 37 36 38 40 41 43 44 40 35 31 29 31 34 37 39 38 33
79 77 75 73 72 73 74 72 71 72 73 74 74 74 75 77 77 75 74 73 69 65 64 64 64 64 66 68 69 70 69 69 69 67 68 69 70 71 73 73 71 68 61 47 35 28 24 21 20 24 28 31 34 35 35 37 38 37 35 38 40 40 40 42 42 39 34 31 32 34 36 38 38 33
82 79 77 76 76 76 76 75 73 74 75 76 76 75 77 79 77 75 76 76 71 66 65 65 64 64 66 66 68 70 71 71 71 69 69 69 70 71 73 73 71 66 60 49 37 30 24 21 19 21 26 32 34 33 33 35 36 35 34 36 38 37 37 40 43 40 34 32 34 36 36 38 38 34
86 84 82 81 82 81 79 78 76 77 78 79 78 78 79 78 75 74 75 75 73 70 69 67 66 65 66 67 69 71 73 74 74 72 71 70 70 71 74 74 72 67 59 50 41 32 25 23 22 22 24 29 33 33 32 32 34 34 34 35 36 37 38 44 46 42 35 32 34 36 37 38 39 35